User: anonymous   Login
Location: Strawberry
(45.6646°N, 111.9596°W)
Time: 10:47:05
(UTC+00:00)
Language:

MOZHAYETS 4 - Orbit

View from above orbital plane
View from above orbital plane
View from above satellite
View from above satellite

Ground track
Ground track

The orbit data is extracted from the following two-line orbital elements,

1 27939U 03042A   22333.81466806  .00000720  00000-0  13534-3 0  9999
2 27939  98.2152 114.7565 0013546  50.4501 309.7908 14.67636456 25294
Epoch (UTC): 29 November 2022 19:33:07
Eccentricity: 0.0013546
inclination: 98.2152°
perigee height: 659 km
apogee height: 678 km
right ascension of ascending node: 114.7565°
argument of perigee: 50.4501°
revolutions per day: 14.67636456
mean anomaly at epoch: 309.7908°
orbit number at epoch: 2529

The dashed part of the orbit path shows where the satellite is in the earth's shadow,  

DLR